Location: Newark
(15.4608°S, 41.1635°W)
Time: 10:37:05
(UTC+00:00)

Vanguard 3 - Pass Details

Date: 07 August 2021
Orbit: 510 x 3260 km, 33.3° (Epoch: 22 September)

Event Time Altitude Azimuth Distance (km) Brightness Sun altitude
Rises 12:31:54 0° 231° (SW) 2,707 9.4 43.4°
Reaches altitude 10° 12:34:13 10° 223° (SW) 1,740 8.5 43.8°
Maximum altitude 12:37:45 41° 150° (SSE) 761 7.4 44.4°
Drops below altitude 10° 12:41:39 10° 78° (ENE) 1,927 9.9 45.1°
Sets 12:44:20 0° 71° (ENE) 3,049 10.7 45.6°
